Regional Weather Roundup
Issued by NWS

Home | Current Version | Previous Version | Graphics & Text | Print | Product List | Glossary On
Versions: 1 2 3 4 5 6 7 8 9 10 11 12 13 14 15 16 17 18 19 20 21 22 23 24 25 26 27 28 29 30 31 32 33 34 35 36 37 38 39 40 41 42 43 44 45 46 47 48 49 50
627
ASUS45 KTFX 122210
RWRMT
MONTANA REGIONAL WEATHER ROUNDUP
NATIONAL WEATHER SERVICE GREAT FALLS MT
300 PM MST FRI FEB 12 2016

NOTE: "FAIR" INDICATES FEW OR NO CLOUDS BELOW 12000 FEET WITH NO
SIGNIFICANT WEATHER AND/OR OBSTRUCTIONS TO VISIBILITY.

MTZ001>007-043-122300-
WEST OF THE DIVIDE

CITY           SKY/WX    TMP DP  RH WIND       PRES   REMARKS
KALISPELL      FOG       36  35  96 CALM      30.13F VSB 3/4
MISSOULA       CLOUDY    44  38  79 NW5       30.15F
BUTTE          CLOUDY    40  33  76 S8        30.14F
MULLAN PASS    CLOUDY    38  35  89 S9        30.12F WCI  31
ANACONDA         N/A     54  30  40 S12G20    30.11F
DEER LODGE       N/A     45  39  81 CALM      30.14S
HAMILTON         N/A     48  39  71 N5        30.12F
PLAINS           N/A     47  41  80 N2        30.13
$$

MTZ008-052>055-122300-
SOUTHWEST MONTANA

CITY           SKY/WX    TMP DP  RH WIND       PRES   REMARKS
BOZEMAN        MOSUNNY   41  34  76 CALM      30.14F
DILLON         SUNNY     52  33  48 SW12      30.14F
ENNIS          SUNNY     54  25  32 S20G26    30.20F
TWIN BRIDGES     N/A     50  33  51 NE3       30.12
$$

MTZ009-010-012-014-046-048-049-054-122300-
EAST SLOPES AND CENTRAL MONTANA

CITY           SKY/WX    TMP DP  RH WIND       PRES   REMARKS
CUT BANK       PTSUNNY   45  33  63 SE15      30.02F
GREAT FALLS    MOSUNNY   51  36  56 S7        30.04F
MALMSTROM AFB  PTSUNNY   49  39  68 NE5       30.05F
HELENA         SUNNY     50  37  61 CALM      30.10F
CHOTEAU          N/A     52  36  54 E3        30.04F
CONRAD           N/A     48  41  77 SE5       30.06F
$$

MTZ011-013-016-021-045-047-050-051-122300-
NORTH CENTRAL MONTANA

CITY           SKY/WX    TMP DP  RH WIND       PRES   REMARKS
HAVRE          CLOUDY    34  26  72 E21       30.11F WCI  22
LEWISTOWN      CLOUDY    40  33  76 E13       30.10F
N BAR RANCH      N/A     39  34  81 VRB7      30.14F
CHINOOK          N/A     25  21  86 E21G28    30.16F WCI  10
$$

MTZ017>020-022>027-061-062-122300-
NORTHEAST MONTANA

CITY           SKY/WX    TMP DP  RH WIND       PRES   REMARKS
GLASGOW        CLOUDY    17  10  74 E22       30.31F WCI   0
JORDAN           N/A     29  26  89 E14       30.25F WCI  18
SIDNEY         CLOUDY    19   7  58 SE12      30.44F WCI   7
WOLF POINT     CLOUDY    19   9  65 E15       30.40F WCI   5
PLENTYWOOD       N/A     10   0  61 E13       30.44F WCI  -5
POPLAR           N/A     16   7  67 E13       30.42F WCI   2
SCOBEY           N/A     12  -6  44 E15       30.33F WCI  -4
$$

MTZ028>42-056>058-122300-
SOUTHCENTRAL AND SOUTHEAST MONTANA

CITY           SKY/WX    TMP DP  RH WIND       PRES   REMARKS
BAKER          CLOUDY    24  15  68 E16       30.33F WCI  11
BILLINGS       PTSUNNY   44  32  62 NE6       30.15F
LIVINGSTON     MOSUNNY   58  33  39 NW12      30.09F
MILES CITY     CLOUDY    34  27  75 NE10      30.27F WCI  26
EKALAKA          N/A     28  21  75 E12       30.22F WCI  18
FORSYTH          N/A     37  28  70 E12       30.23F WCI  30
LAUREL           N/A     44  31  60 NE5       30.12F
ROUNDUP          N/A     43  30  60 CALM      30.06F
$$

REGIONAL REPORTS...DAKOTAS

CITY           SKY/WX    TMP DP  RH WIND       PRES   REMARKS
WILLISTON      CLOUDY    14   0  53 E9        30.47F WCI   2
MINOT          SUNNY      9  -7  48 N3        30.57S
DICKINSON      CLOUDY    11  -1  58 E9        30.41F WCI  -2
BEACH          CLOUDY    16  12  86 E13       30.40F WCI   2
CROSBY           N/A     10  -2  56 SE9       30.52F WCI  -2
TIOGA            N/A     10  -2  56 E8        30.52F WCI  -1
WATFORD CITY     N/A     16   0  48 SE10      30.46F WCI   3
BISMARCK       CLOUDY    13  -1  54 SE7       30.58S WCI   3
GRAND FORKS    CLOUDY     2  -9  60 N13       30.68R WCI -15
FARGO          SUNNY      2  -9  60 N16       30.66S WCI -18
BUFFALO SD       N/A     24  17  74 SE16      30.28F WCI  11
RAPID CITY     FOG       25  24  96 SE15      30.34F VSB 1/4 WCI  13
$$

REGIONAL REPORTS...WYOMING/IDAHO/WASHINGTON

CITY           SKY/WX    TMP DP  RH WIND       PRES   REMARKS
GILLETTE       CLOUDY    41  30  65 SE9       30.20F
SHERIDAN       MOSUNNY   48  28  46 SE5       30.14F
BUFFALO WY     CLOUDY    47  30  51 SE16      30.17S
CODY           CLOUDY    55  25  30 E6        30.12F
YELLOWSTONE LA   N/A     44  14  29 SW8       30.28F
IDAHO FALLS    CLOUDY    32  27  81 N6        30.29F WCI  26
SALMON         CLOUDY    34  28  80 E3        30.23F
BOISE          MOSUNNY   47  33  58 N5        30.26F
SPOKANE        PTSUNNY   49  42  77 S6        30.11F
$$

REGIONAL REPORTS...ALBERTA

CITY           SKY/WX    TMP DP  RH WIND       PRES   REMARKS
EDMONTON       CLOUDY    19  14  79 E14       30.06F WCI   6
CALGARY        FOG       27  27 100 S13       29.96F VSB 1/4 WCI  16
LETHBRIDGE     PTSUNNY   54  37  54 S22       29.95F
MEDICINE HAT   CLOUDY    36  34  93 E6        30.07F WCI  31
WATERTON GATE    N/A     52  32  46 SW33G48     N/A
CARDSTON         N/A     57  32  38 W14G21      N/A
MILK RIVER       N/A     41  34  75 S13G20      N/A
ONEFOUR          N/A     27  25  93 E20         N/A  WCI  13
$$

REGIONAL REPORTS...SASKATCHEWAN

CITY           SKY/WX    TMP DP  RH WIND       PRES   REMARKS
SWIFT CURRENT  CLOUDY    12   7  79 SE20G26   30.22F WCI  -6
REGINA         PTSUNNY   10  -2  56 SE15      30.46F WCI  -6
SASKATOON      PTSUNNY    7  -2  66 E14       30.46F WCI -10
CYPRESS HILLS    N/A     19  18  93 SE5         N/A
VAL MARIE        N/A     18  12  79 SE15G21     N/A  WCI   3
ROCKGLEN         N/A     10   0  61 SE15        N/A  WCI  -6
ASSINIBOIA       N/A     16   9  73 SE13G20     N/A  WCI   2
$$




USA.gov is the U.S. government's official web portal to all federal, state and local government web resources and services.